Location: Wallasey
(53.4265°N, 3.0662°W)
Time: 19:30:41
(UTC+00:00)

XW-2B - Pass Details

Date: 20 October 2019
Orbit: 507 x 528 km, 97.5° (Epoch: 17 November)

Event Time Altitude Azimuth Distance (km) Brightness Sun altitude
Rises 07:07:12 0° 17° (NNE) 2,633 ? -6.7°
Reaches altitude 10° 07:09:21 10° 22° (NNE) 1,740 ? -6.4°
Maximum altitude 07:13:02 54° 100° (E) 625 ? -5.9°
Drops below altitude 10° 07:16:40 10° 179° (S) 1,724 ? -5.3°
Sets 07:18:47 0° 184° (S) 2,605 ? -5.0°
